User: anonymous   Login
Location: �clusier
(49.9361°N, 2.7869°E)
Time: 07:47:06
(UTC+00:00)
Language:

OBJECT-B - Orbit

View from above orbital plane
View from above orbital plane
View from above satellite
View from above satellite

Ground track
Ground track

The orbit data is extracted from the following two-line orbital elements,

1 40382U 15004B   21263.83679546 0.00008500  00000-0  14654-3 0    08
2 40382  96.9393 301.3842 0006855  98.5175 261.4823 15.51026480    06
Epoch (UTC): 20 September 2021 20:04:59
Eccentricity: 0.0006855
inclination: 96.9393°
perigee height: 409 km
apogee height: 418 km
right ascension of ascending node: 301.3842°
argument of perigee: 98.5175°
revolutions per day: 15.51026480
mean anomaly at epoch: 261.4823°
orbit number at epoch: 0

The dashed part of the orbit path shows where the satellite is in the earth's shadow,  

DLR